{"data":{"norad_id":53891,"intl_designator":"2022-119F","name":"STARLINK-5041","alt_names":[],"object_type":"PAYLOAD","status":"ACTIVE","operator":null,"country":"US","launch_date":"2022-09-24","launch_site_code":"AFETR","launch_vehicle":null,"mission":null,"orbit_class":"UNKNOWN","rcs_meters":null,"size_class":null,"mass_kg":null,"dimensions":null,"purposes":["comms"],"wikipedia_slug":null,"has_3d_model":false,"image_url":null,"decayed_at":null,"tle_current":{"epoch":"2026-09-20T22:00:03.000096Z","epoch_age_seconds":48520,"freshness":"FRESH","line1":"1 53891U 22119F   26263.91670139  .00375037  64714-4  11089-2 0  9998","line2":"2 53891  53.2133 118.4418 0000961  84.8587 213.3770 15.92084157  5941","mean_motion":15.92084157,"eccentricity":9.61e-5,"inclination_deg":53.2133,"raan_deg":118.4418,"arg_perigee_deg":84.8587,"mean_anomaly_deg":213.377,"bstar":0.0011089,"rev_number":594,"period_min":90.447480032301,"perigee_km":295.81004692542,"apogee_km":297.09290283029,"semimajor_km":6674.5884748779,"source":"CELESTRAK","updated_at":"2026-09-21T09:00:33.028739Z"}}}